Tracking 26492 objects as of 8-Dec-2022
HD Live streaming from Space Station
objects crossing your sky now

MOLNIYA 1-52

Track MOLNIYA 1-52 now!
MOLNIYA 1-52 is classified as:


NORAD ID: 13012
Int'l Code: 1981-123A
Perigee: 1,044.6 km
Apogee: 39,342.2 km
Inclination: 61.6 °
Period: 718.1 minutes
Semi major axis: 26564 km
RCS: 16.6943 m2 (large)
Launch date: December 23, 1981
Source: Commonwealth of Independent States (former USSR) (CIS)
Launch site: TYURATAM MISSILE AND SPACE COMPLEX (TTMTR)
aabbcc
Your satellite tracking list
Your tracking list is empty




NASA's NSSDC Master Catalog

Two Line Element Set (TLE):
1 13012U 81123A   22338.89200130  .00001559  00000-0  15643-1 0  9993
2 13012  61.6399 254.1879 7208430 257.1891  20.4462  2.00517385299993
Source of the keplerian elements: AFSPC